Regional Weather Roundup
Issued by NWS

Home | Current Version | Previous Version | Text Only | Print | Product List | Glossary On
Versions: 1 2 3 4 5 6 7 8 9 10 11 12 13 14 15 16 17 18 19 20 21 22 23 24 25 26 27 28 29 30 31 32 33 34 35 36 37 38 39 40 41 42 43 44 45 46 47 48 49 50
000
ASUS44 KLIX 220701
RWRLA
LOUISIANA WEATHER ROUNDUP
NATIONAL WEATHER SERVICE NEW ORLEANS LA
200 AM CDT WED OCT 22 2014

NOTE: "FAIR" INDICATES FEW OR NO CLOUDS BELOW 12,000 FEET WITH NO
      SIGNIFICANT WEATHER AND/OR OBSTRUCTIONS TO VISIBILITY.
      SKY/WX - SKY CONDITION AND SIGNIFICANT WEATHER.
      TMP - AIR TEMPERATURE.    DP   - DEWPOINT TEMPERATURE.
      RH  - RELATIVE HUMIDITY.  PRES - PRESSURE.
      HX  - HEAT INDEX.         WCI  - WIND CHILL INDEX.

*  THESE STATIONS ARE NOT NWS OR FAA STATIONS AND ARE NOT UNDER
   NWS QUALITY CONTROL.

LAZ040-048-061>063-065-066-069-220800-
SOUTHEAST LOUISIANA

CITY           SKY/WX    TMP DP  RH WIND       PRES   REMARKS
N.O. AUDUBON   NOT AVBL
N.O. INTL ARPT PTCLDY    64  57  78 NE6       30.02S
N.O. LAKEFRONT CLEAR     71  61  70 NE14      30.02S
N.O. DOWNTOWN* FAIR      70  55  60 NE5       30.02S
SLIDELL        CLEAR     55  52  89 CALM      30.02S
BATON ROUGE    CLEAR     61  57  87 N3        30.04R
BOOTHVILLE     CLEAR     69  64  84 N3        30.01S
BELLE CHASSE   CLEAR     57  53  86 CALM      30.02R
BOGALUSA*        N/A     53  49  89 CALM      30.05S
NEW ROADS*     FAIR      61  58  90 N3        30.05R
GONZALES*      FAIR      59  59 100 CALM      30.03R
HAMMOND*       NOT AVBL
HOUMA*         CLEAR     57  56  97 CALM      30.02S
PORT FOURCHON* SUNNY     70  64  83 N5        30.03F

$$

LAZ041-044-053-054-220800-
SOUTHWEST LOUISIANA

CITY           SKY/WX    TMP DP  RH WIND       PRES   REMARKS
LAKE CHARLES   CLEAR     60  59  96 CALM      30.03F
LAFAYETTE      CLEAR     62  59  90 NE3       30.03F
PATTERSON      CLEAR     59  57  94 CALM      30.05R
SALT POINT       N/A     64  60  87 CALM      30.02S
NEW IBERIA     CLEAR     65  60  84 NE8       30.04R
CHENAULT AIRPK CLEAR     63  60  92 CALM      30.04S

$$

LAZ027-028-220800-
CENTRAL LOUISIANA

CITY           SKY/WX    TMP DP  RH WIND       PRES   REMARKS
FORT POLK      CLEAR     63  60  91 NE3       30.05S
ALEXANDRIA INT MOCLDY    61  59  93 CALM      30.04S
ALEXANDRIA     MOCLDY    57  56  96 CALM      30.06S FOG

$$

LAZ001-002-220800-
NORTHWEST LOUISIANA

CITY           SKY/WX    TMP DP  RH WIND       PRES   REMARKS
SHREVEPORT     CLEAR     61  58  90 CALM      30.07S
BARKSDALE AFB  CLEAR     58  57  97 MISG      30.08R
DTN SHREVEPORT CLEAR     59  57  93 CALM      30.08R

$$

LAZ014-016-220800-
NORTHEAST LOUISIANA

CITY           SKY/WX    TMP DP  RH WIND       PRES   REMARKS
MONROE         CLEAR     62  56  80 NE8       30.09R
TALLULAH       CLEAR     56  54  93 CALM      30.07F

$$




USA.gov is the U.S. government's official web portal to all federal, state and local government web resources and services.